www.pogodaiklimat.ru

Погода и климат >> Архив погоды >> Россия >> Камчатский край >> Большерецк


ПОГОДА в Большерецке

  • Прогноз погоды в Большерецке
  • Монитор погоды в Большерецке
  • Климат города

АРХИВ ПОГОДЫ в Большерецке

Время (UTC), дата Ветер
(напр.,м/с)
 
Видим.   Явления Облачность Т
(С)
Тd
(С)
f
(%)
Тe
(С)
Тes
(С)
Комфортность P
(гПа)
Po
(гПа)
Тmin
(С)
Tmax
(С)
R
(мм)
S
(см)
03 17.02 В 1 20 км {туман} 9/9 600 м
[Sc]
-8.8 -14.5 63 -11 -11 1008.6 1004.7
06 17.02 ЮВ 1 20 км слабый ливневой снег {туман} 10/10 600 м
[Cb cap]
-7.8 -15.0 56 -10 -10 1006.8 1002.9
09 17.02 ЮВ 2 20 км {ливн. осадки} 9/9 600 м
[Cb cap]
-7.7 -12.1 71 -12 -12 1005.7 1001.8 -7.6 0.0
12 17.02 В 3 20 км {ливн. осадки} 10/10 600 м
[Cb cap]
-5.4 -9.5 73 -11 -11 1003.0 999.2
15 17.02 ЮВ 7-12
{12}
20 км 10/10 600 м
[Cb cap]
-2.3 -6.0 76 -10 -10 1000.3 996.6
18 17.02 В 5-10
{13}
20 км 10/10 600 м
[Cb cap]
-2.3 -7.4 68 -9 -9 996.1 992.4
21 17.02 В 9-15
{17}
50 км 10/0
[Ac und]
-1.2 -7.2 64 -9 -9 993.0 989.3 -7.7 55
00 18.02 В 9-18
{21}
50 км 10/6 600 м
[Sc Ac und]
-0.9 -7.2 62 -9 -9 989.1 985.4
03 18.02 В 9-16
{19}
50 км 10/8 600 м
[Sc Ac und]
-0.7 -6.2 66 -8 -8 983.7 980.0
06 18.02 В 13-21
{24}
20 км позёмок {метель} 10/8 600 м
[Sc Ac und]
-1.0 -4.3 78 -10 -10 979.7 976.0
09 18.02 В 16-26
{26}
20 км позёмок {метель} 10/10 600 м
[Sc]
-1.3 -3.6 84 -12 -12 976.2 972.5 -0.5
12 18.02 В 10-18
{25}
20 км позёмок {метель} 10/10 600 м
[Sc]
-0.8 -2.8 86 -9 -9 974.8 971.2
15 18.02 ЮВ 5
{23}
10 км слабый ливневой снег {метель} 10/10 600 м
[Cb cap]
-3.7 -4.1 97 -11 -11 979.6 975.9
18 18.02 В 4 20 км в посл. час ливневой снег {метель} 8/8 600 м
[Cb cap]
-5.7 -9.7 73 -12 -12 981.8 978.0
21 18.02 В 4 50 км 9/6 600 м
[Cb cap Ci]
-6.1 -11.4 66 -12 -12 982.3 978.5 -6.6 0.5 53
00 19.02 В 7-11
{11}
50 км 8/3 600 м
[Sc Ci fib]
-2.5 -9.8 57 -10 -9 982.6 978.9
03 19.02 В 7-12
{12}
50 км позёмок {метель} 9/0 600 м
[Ac cast Ci fib]
-0.9 -8.9 55 -8 -7 981.9 978.2
06 19.02 В 6
{14}
50 км {метель} 9/0
[Ac cast]
-1.9 -8.6 60 -9 -9 981.9 978.2
09 19.02 В 8-12
{12}
20 км 10/0
[Ac und]
-2.8 -7.3 71 -11 -11 982.0 978.3 -0.7
12 19.02 В 8-11
{14}
20 км 10/0
[Ac und]
-3.5 -7.8 72 -12 -12 981.8 978.1
15 19.02 В 9-13
{16}
20 км позёмок {метель} 10/0
[Ac und]
-3.3 -6.4 79 -12 -12 981.3 977.6
18 19.02 В 8-13
{16}
20 км позёмок {метель} 10/0
[Ac und]
-3.1 -6.7 76 -11 -11 981.9 978.2
21 19.02 В 8-10
{13}
20 км позёмок {метель} 10/10 600 м
[Cb cap]
-2.6 -6.7 73 -11 -11 983.0 979.2 -3.6 55
00 20.02 В 9-17
{17}
20 км позёмок {метель} 8/4 600 м
[Sc Ci fib]
-1.2 -6.6 67 -9 -9 983.9 980.2
03 20.02 В 9-14
{17}
20 км позёмок {метель} 9/6 600 м
[Sc Ac trans]
-0.7 -6.7 64 -8 -8 984.3 980.6
06 20.02 С 3
{14}
50 км {метель} 10/6 600 м
[Sc Ac und]
-2.0 -7.5 66 -7 -7 986.4 982.7
09 20.02 С 3 20 км 10/6 600 м
[Sc Ac und]
-3.3 -8.7 66 -8 -8 988.2 984.4 -0.4
12 20.02 В 1 20 км 10/4 600 м
[Sc Ci fib]
-5.8 -10.5 69 -8 -8 989.7 985.9
15 20.02 С 1 20 км 5/0
[Ci fib]
-5.7 -9.8 73 -8 -8 990.7 986.9
18 20.02 С 2 20 км 4/0
[Ci fib]
-8.7 -11.1 83 -13 -13 991.0 987.2
21 20.02 СВ 4 50 км 8/4 600 м
[Sc Ci fib]
-7.1 -11.4 71 -14 -14 992.1 988.3 -10.0 54
00 21.02 С 2 50 км 10/6 600 м
[Sc Ac und]
-5.7 -11.0 66 -10 -9 992.6 988.8
03 21.02 С 2 20 км 10/8 600 м
[Sc Ac und]
-2.2 -9.5 57 -6 -5 991.3 987.5
06 21.02 СЗ 3 50 км 10/6 600 м
[Sc Ac und]
-4.9 -8.6 75 -10 -10 991.0 987.2
09 21.02 С 2 20 км 10/10 600 м
[Sc]
-5.2 -10.1 68 -9 -9 990.9 987.1 -2.1
12 21.02 СЗ 4 20 км 10/10 600 м
[Sc]
-3.5 -5.9 83 -10 -10 990.0 986.2
15 21.02 С 2 20 км 10/10 600 м
[Sc]
-5.6 -6.5 93 -10 -10 988.9 985.1
18 21.02 С 3 20 км 10/10 600 м
[Sc]
-7.4 -10.4 79 -13 -13 987.8 984.0
21 21.02 СЗ 4 50 км 10/8 600 м
[Sc Ac und]
-7.4 -11.4 73 -14 -14 986.9 983.1 -8.1 54
00 22.02 СЗ 6 50 км 9/4 600 м
[Sc Ac trans Ci fib]
-5.1 -6.8 88 -13 -12 986.1 982.3
03 22.02 СЗ 8-12
{12}
50 км 8/0
[Ac lent Ci fib]
-2.1 -5.5 77 -10 -10 983.9 980.2
06 22.02 СЗ 8-12
{13}
50 км 8/3 600 м
[Sc Ci fib]
-4.2 -6.4 85 -13 -13 984.3 980.5
09 22.02 СЗ 8-11
{13}
20 км 10/0
[Ac und]
-3.7 -6.2 83 -12 -12 986.1 982.4 -2.0
12 22.02 СЗ 6-10
{12}
20 км 3/0
[Ac lent]
-5.4 -7.2 87 -13 -13 987.6 983.9
15 22.02 СЗ 6
{11}
20 км ясно -4.3 -6.3 86 -12 -12 989.0 985.3
18 22.02 СЗ 6-10
{11}
20 км 3/0
[Ac lent]
-2.9 -5.4 83 -10 -10 990.3 986.5
21 22.02 СЗ 7-10
{11}
20 км слабый ливневой снег {метель} 10/10 600 м
[Cb cap]
-2.9 -4.1 91 -11 -11 991.1 987.3 -6.2 0.0 54
00 23.02 СЗ 7-10
{12}
20 км слабый ливневой снег {метель} 10/10 600 м
[Cb cap]
-2.1 -4.8 82 -10 -10 991.5 987.7
03 23.02 СЗ 6-10
{12}
10 км слабый ливневой снег {метель} 10/10 600 м
[Cb cap]
-2.7 -4.4 88 -10 -10 991.9 988.1
06 23.02 СЗ 4
{10}
10 км слабый ливневой снег {метель} 10/10 600 м
[Cb cap]
-3.8 -4.4 96 -10 -10 993.8 990.0
09 23.02 С 1 10 км слабый ливневой снег 9/9 600 м
[Cb cap]
-6.0 -6.6 96 -9 -9 996.4 992.6 -1.9 0.6
12 23.02 штиль 0 20 км в посл. час ливневой снег 9/9 600 м
[Cb cap]
-7.7 -8.4 95 -9 -9 998.4 994.5
15 23.02 ЮВ 1 10 км слабый ливневой снег 10/10 600 м
[Cb cap]
-7.1 -7.7 95 -10 -10 999.3 995.5
18 23.02 В 3 10 км слабый ливневой снег 10/10 600 м
[Cb cap]
-8.1 -8.7 95 -14 -14 999.1 995.3
21 23.02 В 1 20 км слабый ливневой снег 10/8 600 м
[Cb cap Ci]
-9.5 -10.1 95 -12 -12 998.4 994.5 -10.8 2 63
00 24.02 В 1 20 км в посл. час ливневой снег 8/4 600 м
[Cb calv Ac lent Ci fib]
-6.3 -8.0 88 -9 -7 997.3 993.5

 

Местоположение метеостанции Большерецк (Камчатский край, Россия): широта 52.83 долгота 156.30 высота над уровнем моря 30 м.

В архиве по умолчанию представлена погода в Большерецке за последнюю неделю. Архивные данные за месяц целиком и за предыдущие месяцы, начиная с января 2011 года, Вы можете получить, выбрав интересующий диапазон дат из раскрывающегося списка и нажав кнопку "Ввод!".

Внимание! Время в таблицах - всемирное. Для получения местного времени необходимо прибавить поправку, которая в Большерецке равна 12 ч.

Смотрите также архив погоды в соседних городах и на ближайших метеорологических станциях:

Погода в Начиках (Камчатский край, Россия) (99 км)
Погода в Сосновке (Камчатский край, Россия) (137 км)
Погода в Петропавловск-Камч. 2 (Камчатский край, Россия) (150 км)
Погода в Озерной (Камчатский край, Россия) (150 км)
Погода в Петропавловск-Камчатском (Камчатский край, Россия) (155 км)
Погода в Водопадной (Камчатский край, Россия) (161 км)
Погода в Петропавловском Маяке (Камчатский край, Россия) (161 км)
Погода в Соболево (Камчатский край, Россия) (166 км)
Погода в Пущино (Камчатский край, Россия) (188 км)
Погода на Мысе Лопатка (Камчатский край, Россия) (219 км)

Пояснения к столбцам:

Ветер - указаны скорость ветра в м/с - средняя за 10 мин, порывы в срок и между сроками (в фигурных скобках) и направление, откуда дует ветер: С - северный, СВ - северо-восточный, В - восточный, ЮВ - юго-восточный, Ю - южный, ЮЗ - юго-западный, З - западный, СЗ - северо-западный.
Видимость - горизонтальная дальность видимости в метрах или километрах. При видимости от 1 до 10 км при отсутствии осадков обычно наблюдается дымка, при ухудшении видимости до 1 км и менее - туман. В сухую погоду видимость может ухудшаться дымом, пылью или мглою.
Явления - указаны атмосферные явления, наблюдавшиеся в срок или в последний час перед сроком; фигурными скобками обозначены явления, наблюдавшиеся между сроками (за 1-3 часа до срока); квадратными скобками обозначены град или гололедные отложения с указанием их диаметра в мм.
Облачность - указаны через наклонную черту общая и нижняя облачность в баллах и высота нижней границы облаков в метрах; квадратными скобками обозначены формы облаков: Ci - перистые, Cs - перисто-слоистые, Cc - перисто-кучевые, Ac - высококучевые, As - высокослоистые, Sc - слоисто-кучевые, Ns - слоисто-дождевые, Cu - кучевые, Cb - кучево-дождевые. Подробнее классификацию облаков см. в Атласе облаков (PDF).
T - Температура воздуха - температура, измеренная на высоте 2 м над землей.
Td - Температура точки росы - температура, при понижении до которой содержащийся в воздухе водяной пар достигнет насыщения.
f - Относительная влажность воздуха - влажноcть воздуха, измеренная на высоте 2 м над землей.
Te - Эффективная температура - температура, которую ощущает одетый по сезону человек в тени. Характеристика душности погоды. При расчете учитывается влияние влажности воздуха и скорости ветра на теплоощущения человека.
Tes - Эффективная температура на солнце - температура, которую ощущает человек, с поправкой на солнечный нагрев. Характеристика знойности погоды. Зависит от высоты солнца над горизонтом, облачности и скорости ветра. Ночью, в пасмурную погоду, а также при ветре 12 м/с и более поправка равна нулю.
P - Атмосферное давление - приведенное к уровню моря атмосферное давление.
Po - Атмосферное давление - измеренное на уровне метеостанции атмосферное давление.
Tmin - Минимальная температура - минимум температуры воздуха на высоте 2 м над землей.
Tmax - Максимальная температура - максимум температуры воздуха на высоте 2 м над землей.
R - Количество осадков - Количество выпавших осадков, мм. При наведении курсора мыши на число - период времени, за который выпало указанное количество осадков.
S - Снежный покров - Высота снежного покрова, см. При наведении курсора мыши на число - состояние снежного покрова и степень покрытия местности в баллах.